• Join FlightAware (Why Join?)
  • Login
  • US Flag 
08:43AM EDT


 

Airport Tracker/Info


-or-


 

Live Flight TrackerFlight Track Log ✈ DAL6048 ✈ 20-May-2013 ✈ KMHT - KLGA

Flight Track Log - Related Links

Times and Time Zones

All times are in EDT time to prevent confusion due to time zone crossing. See the DAL6048 flight status page for this flight to view local times or setup timezone preferences in your user account.

Time Position Orientation Groundspeed Altitude Reporting Facility
EDT Latitude Longitude Course Direction KTS MPH feet Rate Location/Type
04:25PM 42.9964 -71.4722 339° North 191 220 3,500  Level Boston Center
04:26PM 43.0508 -71.4997 340° North 185 213 6,200 2,400 Climbing Boston Center
04:27PM 42.9501 -72.0740 270° West  Level FlightAware Approximate
04:27PM 43.0825 -71.5419 316° Northwest 185 213 8,400  Level Boston Center
04:28PM 42.9509 -72.2354 274° West  Level FlightAware Approximate
04:28PM 43.0853 -71.6356 272° West 203 234 9,900  Level Boston Center
04:29PM 42.9583 -72.3966 274° West  Level FlightAware Approximate
04:29PM 43.0714 -71.7294 259° West 248 285 11,400  Level Boston Center
04:30PM 43.0533 -71.8492 258° West 291 335 12,900 1,440 Climbing Boston Center
04:31PM 43.0350 -71.9714 258° West 327 376 14,300 1,200 Climbing Boston Center
04:32PM 43.0167 -72.0936 258° West 339 390 15,400 1,200 Climbing Boston Center
04:33PM 42.9942 -72.2214 257° West 339 390 16,800 1,260 Climbing Boston Center
04:34PM 42.9339 -72.3125 228° Southwest 339 390 18,000 1,200 Climbing Boston Center
04:35PM 42.8589 -72.4006 221° Southwest 353 406 19,200 960 Climbing Boston Center
04:36PM 42.7817 -72.4911 221° Southwest 361 415 20,000 360 Climbing Boston Center
04:37PM 42.6919 -72.5925 220° Southwest 392 451 20,000  Level Boston Center
04:38PM 42.5961 -72.6911 217° Southwest 414 476 20,000  Level Boston Center
04:39PM 42.5061 -72.7836 217° Southwest 425 489 20,000  Level Boston Center
04:40PM 42.4142 -72.8872 220° Southwest 425 489 20,000 -300 Level Boston Center
04:41PM 42.3094 -73.0100 221° Southwest 439 505 19,400 -900 Descending Boston Center
04:42PM 42.2192 -73.1100 219° Southwest 445 512 18,300 -720 Descending Boston Center
04:43PM 42.1311 -73.2072 219° Southwest 434 499 18,000 -180 Descending Boston Center
04:44PM 42.0533 -73.2956 220° Southwest 402 463 18,000  Level Boston Center
04:45PM 41.9861 -73.3675 219° Southwest 360 414 18,000 -300 Level Boston Center
04:46PM 41.9061 -73.4556 219° Southwest 343 395 17,400 -780 Descending Boston Center
04:47PM 41.8719 -73.5469 243° Southwest 296 341 16,500 -1,140 Descending Boston Center
04:48PM 41.8600 -73.6750 263° West 309 356 15,200 -1,320 Descending Boston Center
04:49PM 41.8381 -73.7858 255° West 316 364 13,900 -1,200 Descending Boston Center
04:50PM 41.7564 -73.8064 191° South 259 298 12,900 -1,080 Descending Boston Center
04:51PM 41.6731 -73.8075 181° South 275 316 11,800 -1,260 Descending Boston Center
04:52PM 41.6167 -73.8000 174° South 320 368 11,000 -1,500 Descending New York TRACON
04:53PM 41.5333 -73.8000 180° South 298 343 9,500 -1,440 Descending New York TRACON
04:54PM 41.4500 -73.8000 180° South 289 333 8,100 -720 Descending New York TRACON
04:55PM 41.3667 -73.8000 180° South 287 330 8,100  Level New York TRACON
04:56PM 41.3000 -73.7500 151° Southeast 294 338 8,100 -60 Level New York TRACON
04:57PM 41.2167 -73.6833 149° Southeast 294 338 8,000 -420 Descending New York TRACON
04:58PM 41.1667 -73.6333 143° Southeast 293 337 7,300 -1,020 Descending New York TRACON
04:58PM 41.1000 -73.6167 169° South 284 327 6,200 -1,200 Descending New York TRACON
05:00PM 41.0333 -73.6667 210° Southwest 273 314 4,900 -1,080 Descending New York TRACON
05:00PM 40.9667 -73.7167 210° Southwest 234 269 4,100 -840 Descending New York TRACON
05:02PM 40.9333 -73.7500 217° Southwest 181 208 3,300 -900 Descending New York TRACON
05:03PM 40.8833 -73.7833 207° Southwest 184 212 2,300 -900 Descending New York TRACON
05:04PM 40.8500 -73.8167 217° Southwest 146 168 1,500 -780 Descending New York TRACON
05:05PM 40.8167 -73.8500 217° Southwest 133 153 800 -720 Descending New York TRACON